TimeMDT,TemperatureF,Dew PointF,Humidity,Sea Level PressureIn,VisibilityMPH,Wind Direction,Wind SpeedMPH,Gust SpeedMPH,PrecipitationIn,Events,Conditions,WindDirDegrees,DateUTC
12:52 AM,45.0,37.0,74,29.91,10.0,NNE,6.9,-,N/A,,Overcast,30,2012-10-09 06:52:00
1:52 AM,43.0,39.0,86,29.93,10.0,North,6.9,-,0.00,,Overcast,10,2012-10-09 07:52:00
2:28 AM,42.8,37.4,81,29.94,10.0,North,9.2,-,N/A,,Overcast,360,2012-10-09 08:28:00
2:45 AM,42.8,37.4,81,29.94,10.0,North,17.3,26.5,N/A,,Overcast,360,2012-10-09 08:45:00
2:52 AM,42.1,37.0,82,29.92,10.0,North,12.7,24.2,N/A,,Overcast,360,2012-10-09 08:52:00
3:52 AM,39.9,36.0,86,29.96,10.0,North,12.7,-,0.00,Rain,Light Rain,10,2012-10-09 09:52:00
4:46 AM,37.4,35.6,93,30.00,8.0,North,10.4,17.3,0.00,Rain,Light Rain,350,2012-10-09 10:46:00
4:57 AM,37.4,35.6,93,30.01,10.0,North,9.2,-,0.00,Rain,Light Rain,360,2012-10-09 10:57:00
5:05 AM,37.4,35.6,93,30.01,10.0,North,11.5,18.4,0.00,Rain,Light Rain,350,2012-10-09 11:05:00
5:19 AM,37.4,33.8,87,30.02,10.0,North,12.7,-,0.01,Rain,Light Rain,350,2012-10-09 11:19:00
5:52 AM,35.1,33.1,92,30.06,10.0,Variable,5.8,-,0.01,Rain,Light Rain,0,2012-10-09 11:52:00
6:02 AM,35.6,33.8,93,30.04,10.0,NNE,8.1,-,0.02,Rain,Light Rain,20,2012-10-09 12:02:00
6:18 AM,35.6,32.0,87,30.05,8.0,North,8.1,-,0.02,Snow,Light Snow,10,2012-10-09 12:18:00
6:29 AM,33.8,32.0,93,30.05,4.0,North,3.5,-,0.02,Snow,Light Snow,10,2012-10-09 12:29:00
6:45 AM,33.8,32.0,93,30.05,8.0,Calm,Calm,-,0.03,Snow,Light Snow,0,2012-10-09 12:45:00
6:52 AM,34.0,32.0,92,30.07,9.0,Calm,Calm,-,0.03,Snow,Light Snow,0,2012-10-09 12:52:00
7:52 AM,35.1,33.1,92,30.09,10.0,SW,5.8,-,0.00,,Overcast,220,2012-10-09 13:52:00
8:52 AM,37.0,33.1,86,30.12,10.0,SW,3.5,-,N/A,,Overcast,230,2012-10-09 14:52:00
9:52 AM,39.0,33.1,79,30.13,10.0,West,3.5,-,N/A,,Overcast,260,2012-10-09 15:52:00
10:52 AM,39.9,33.1,77,30.14,10.0,West,9.2,-,N/A,,Overcast,270,2012-10-09 16:52:00
11:17 AM,41.0,35.6,81,30.11,10.0,West,8.1,-,N/A,,Overcast,260,2012-10-09 17:17:00
11:52 AM,43.0,35.1,74,30.13,10.0,West,11.5,16.1,N/A,,Overcast,260,2012-10-09 17:52:00
12:07 PM,44.6,35.6,71,30.11,10.0,West,10.4,-,N/A,,Overcast,260,2012-10-09 18:07:00
12:29 PM,44.6,33.8,66,30.11,10.0,West,10.4,-,N/A,,Overcast,270,2012-10-09 18:29:00
12:52 PM,45.0,33.1,63,30.13,10.0,WSW,8.1,-,N/A,,Mostly Cloudy,250,2012-10-09 18:52:00
1:08 PM,44.6,30.2,57,30.10,10.0,WNW,9.2,-,N/A,,Mostly Cloudy,290,2012-10-09 19:08:00
1:52 PM,46.9,28.9,50,30.10,10.0,WNW,11.5,-,N/A,,Mostly Cloudy,290,2012-10-09 19:52:00
2:52 PM,46.0,28.9,51,30.12,10.0,North,16.1,20.7,N/A,,Overcast,10,2012-10-09 20:52:00
3:09 PM,46.4,32.0,57,30.10,10.0,North,13.8,-,N/A,,Mostly Cloudy,10,2012-10-09 21:09:00
3:52 PM,46.9,30.0,52,30.12,10.0,NNE,12.7,19.6,N/A,,Clear,20,2012-10-09 21:52:00
4:52 PM,46.0,28.0,50,30.14,10.0,NNE,10.4,-,N/A,,Overcast,30,2012-10-09 22:52:00
5:52 PM,42.1,27.0,55,30.17,10.0,NNE,5.8,-,N/A,,Clear,30,2012-10-09 23:52:00
6:52 PM,34.0,25.0,70,30.20,10.0,ENE,4.6,-,N/A,,Clear,60,2012-10-10 00:52:00
8:52 PM,27.0,23.0,85,30.24,10.0,Calm,Calm,-,N/A,,Partly Cloudy,0,2012-10-10 02:52:00
9:52 PM,26.1,21.0,81,30.25,10.0,Calm,Calm,-,N/A,,Partly Cloudy,0,2012-10-10 03:52:00
10:52 PM,24.1,21.0,88,30.25,10.0,Calm,Calm,-,N/A,,Clear,0,2012-10-10 04:52:00
11:52 PM,21.9,19.0,89,30.23,10.0,Calm,Calm,-,N/A,,Clear,0,2012-10-10 05:52:00